This demonstration page uses our WeatherBlox Daily Observations layout. Learn more.

Left ArrowRight Arrow

Hourly Observations for July 2, 2016

Temp ( °F °C ) Dew Point ( °F °C ) Humidity (%) Winds ( mph kmh ) Pressure ( in mb ) Visibility ( mi km ) Precip ( " mm )
12:15 am 00:15 Cloudy 64 17.6 55 12.7 73 73 E 8 13 29.97 1015 10 16 N/A
12:35 am 00:35 Cloudy 63 17.4 54 12.3 72 72 E 9 15 29.97 1015 10 16 N/A
12:55 am 00:55 Cloudy with Light Rain 62 16.8 55 12.6 76 76 E 9 15 29.97 1015 10 16 N/A
1:15 am 01:15 Cloudy 60 15.8 56 13.2 85 85 E 8 13 30.00 1016 10 16 0.01 0.25
1:35 am 01:35 Cloudy with Light Rain 60 15.8 56 13.3 85 85 E 8 13 30.00 1016 10 16 0.02 0.51
1:55 am 01:55 Cloudy with Rain 59 15.2 55 13 87 87 ENE 12 19 30.00 1016 5 8 0.05 1.27
2:15 am 02:15 Cloudy with Rain 59 15 55 12.8 87 87 ENE 9 15 29.97 1015 10 16 0.01 0.25
2:35 am 02:35 Cloudy with Rain 58 14.5 55 12.7 89 89 ENE 15 24 29.97 1015 3 5 0.20 5.08
2:55 am 02:55 Cloudy with Light Rain 58 14.3 55 12.7 90 90 ENE 7 11 29.97 1015 10 16 0.22 5.59
3:15 am 03:15 Cloudy with Drizzle 58 14.3 55 13 92 92 ENE 9 15 29.97 1015 10 16 0.02 0.51
3:35 am 03:35 Cloudy 58 14.2 55 13 93 93 ENE 10 17 29.97 1015 10 16 0.02 0.51
3:55 am 03:55 Cloudy 58 14.2 55 13 93 93 ENE 12 19 29.94 1014 10 16 0.02 0.51
4:15 am 04:15 Cloudy 58 14.3 56 13.1 93 93 ENE 12 19 29.94 1014 10 16 N/A
4:35 am 04:35 Cloudy 58 14.5 56 13.3 93 93 E 7 11 29.97 1015 10 16 N/A
4:55 am 04:55 Cloudy 58 14.5 56 13.3 93 93 E 8 13 29.94 1014 10 16 N/A
5:15 am 05:15 Cloudy 58 14.6 56 13.5 93 93 E 9 15 29.94 1014 7 11 N/A
5:35 am 05:35 Cloudy 58 14.7 56 13.6 93 93 E 9 15 29.94 1014 7 11 N/A
5:55 am 05:55 Cloudy 59 15 57 13.8 93 93 E 8 13 29.94 1014 7 11 N/A
6:15 am 06:15 Cloudy 59 15 57 14 94 94 E 9 15 29.94 1014 7 11 N/A
6:35 am 06:35 Cloudy with Rain 59 15 57 14 94 94 E 8 13 29.94 1014 5 8 0.01 0.25
6:55 am 06:55 Cloudy with Mist and Fog 59 15.1 57 14.1 94 94 E 7 11 29.94 1014 3 5 0.01 0.25
7:15 am 07:15 Cloudy with Mist and Fog 59 15.2 58 14.3 94 94 ENE 7 11 29.94 1014 2 3 N/A
7:35 am 07:35 Cloudy with Mist and Fog 60 15.3 58 14.5 95 95 ENE 8 13 29.94 1014 2 3 N/A
7:55 am 07:55 Cloudy with Mist and Fog 60 15.5 58 14.5 94 94 E 7 11 29.94 1014 2 2 N/A
8:15 am 08:15 Cloudy with Mist and Fog 60 15.6 59 14.8 95 95 ENE 6 9 29.94 1014 1 2 N/A
8:35 am 08:35 Cloudy with Mist and Fog 60 15.8 59 15 95 95 ENE 8 13 29.94 1014 1 2 N/A
8:55 am 08:55 Cloudy with Mist and Fog 61 16 59 15.1 94 94 ENE 8 13 29.94 1014 1 2 N/A
9:15 am 09:15 Cloudy with Mist and Fog 62 16.4 60 15.5 94 94 ENE 7 11 29.97 1015 1 2 N/A
9:35 am 09:35 Cloudy with Mist and Fog 62 16.5 60 15.7 95 95 ENE 7 11 29.94 1014 1 2 N/A
9:55 am 09:55 Cloudy with Mist and Fog 62 16.5 60 15.6 94 94 ENE 7 11 29.94 1014 1 2 N/A
10:15 am 10:15 Cloudy with Mist and Fog 63 17 61 16.1 94 94 ENE 10 17 29.91 1013 1 2 N/A
10:35 am 10:35 Cloudy with Mist and Fog 63 17.3 62 16.5 95 95 ENE 9 15 29.91 1013 2 3 N/A
10:55 am 10:55 Cloudy with Mist and Fog 64 17.6 62 16.6 94 94 E 9 15 29.94 1014 3 4 0.01 0.25
11:15 am 11:15 Cloudy with Mist and Fog 64 17.8 62 16.8 94 94 E 6 9 29.94 1014 3 4 N/A
11:35 am 11:35 Cloudy with Mist and Fog 64 17.8 62 16.8 94 94 E 8 13 29.94 1014 2 3 N/A
11:55 am 11:55 Cloudy with Mist and Fog 64 18 63 17 94 94 ENE 8 13 29.94 1014 1 2 N/A
12:15 pm 12:15 Cloudy with Light Rain 64 18 63 17.1 95 95 E 8 13 29.94 1014 1 2 N/A
12:35 pm 12:35 Cloudy with Drizzle 64 17.8 63 17 95 95 ENE 9 15 29.94 1014 1 2 N/A
12:55 pm 12:55 Cloudy with Drizzle 64 18 63 17 94 94 ENE 7 11 29.94 1014 1 2 N/A
1:15 pm 13:15 Cloudy with Drizzle 64 18 63 17 94 94 ENE 10 17 29.94 1014 1 2 N/A
1:35 pm 13:35 Cloudy with Mist and Fog 64 18 63 17.1 95 95 ENE 10 17 29.94 1014 2 3 N/A
1:55 pm 13:55 Cloudy with Mist and Fog 64 17.9 62 16.9 94 94 ENE 9 15 29.94 1014 3 4 N/A
2:15 pm 14:15 Cloudy with Mist and Fog 64 18 63 17 94 94 E 8 13 29.94 1014 2 3 N/A
2:35 pm 14:35 Cloudy with Mist and Fog 64 18 63 17 94 94 ENE 9 15 29.94 1014 2 3 N/A
2:55 pm 14:55 Cloudy with Mist and Fog 64 18 63 17 94 94 NE 9 15 29.94 1014 2 3 N/A
3:15 pm 15:15 Cloudy with Mist and Fog 64 18 63 17 94 94 E 9 15 29.94 1014 2 3 N/A
3:35 pm 15:35 Cloudy with Mist and Fog 64 18 63 17 94 94 ENE 9 15 29.94 1014 3 5 N/A
3:55 pm 15:55 Cloudy with Mist and Fog 65 18.1 63 17 93 93 ENE 9 15 29.94 1014 5 8 N/A
4:15 pm 16:15 Cloudy with Mist and Fog 65 18.4 63 17.2 93 93 ENE 8 13 29.94 1014 5 8 N/A
4:35 pm 16:35 Cloudy with Mist and Fog 65 18.3 63 17.2 93 93 ENE 7 11 29.94 1014 5 8 N/A
4:55 pm 16:55 Cloudy 65 18.2 63 17 93 93 ENE 9 15 29.94 1014 10 16 N/A
5:15 pm 17:15 Cloudy 65 18.5 63 17 91 91 ENE 9 15 29.91 1013 10 16 N/A
5:35 pm 17:35 Cloudy 65 18.3 63 17 92 92 ENE 10 17 29.91 1013 7 11 N/A
5:55 pm 17:55 Cloudy with Mist and Fog 64 18 62 16.9 93 93 ENE 9 15 29.91 1013 3 5 N/A
6:15 pm 18:15 Cloudy with Mist and Fog 64 17.6 62 16.5 93 93 ENE 9 15 29.91 1013 3 5 N/A
6:35 pm 18:35 Cloudy with Mist and Fog 64 17.5 62 16.6 95 95 NE 9 15 29.91 1013 2 2 N/A
6:55 pm 18:55 Cloudy with Drizzle 64 17.5 62 16.5 94 94 NE 7 11 29.91 1013 2 2 N/A
7:15 pm 19:15 Cloudy with Light Rain 63 17.4 62 16.5 94 94 NE 8 13 29.91 1013 2 3 N/A
7:35 pm 19:35 Cloudy with Mist and Fog 63 17.4 62 16.5 94 94 NE 8 13 29.91 1013 2 2 N/A
7:55 pm 19:55 Cloudy with Mist and Fog 63 17.3 62 16.5 95 95 NE 7 11 29.94 1014 2 3 N/A
8:15 pm 20:15 Cloudy with Mist and Fog 63 17.3 62 16.5 95 95 NE 9 15 29.94 1014 3 5 N/A
8:35 pm 20:35 Cloudy with Mist and Fog 63 17.2 61 16.3 94 94 NE 8 13 29.94 1014 3 4 N/A
8:55 pm 20:55 Cloudy with Mist and Fog 63 17.2 61 16.3 94 94 NE 7 11 29.94 1014 1 2 N/A
9:15 pm 21:15 Cloudy with Mist and Fog 63 17 61 16.1 94 94 NE 8 13 29.91 1013 1 2 N/A
9:35 pm 21:35 Cloudy with Mist and Fog 62 16.7 60 15.8 94 94 ENE 9 15 29.91 1013 3 5 N/A
9:55 pm 21:55 Cloudy 62 16.7 60 15.8 94 94 ENE 6 9 29.94 1014 7 11 N/A
10:15 pm 22:15 Cloudy with Mist and Fog 62 16.7 60 15.8 94 94 ENE 5 7 29.94 1014 5 8 N/A
10:35 pm 22:35 Cloudy 62 16.7 60 15.8 94 94 NE 9 15 29.94 1014 10 16 N/A
10:55 pm 22:55 Cloudy 62 16.6 60 15.7 94 94 NE 9 15 29.94 1014 7 11 N/A
11:15 pm 23:15 Cloudy with Mist and Fog 62 16.5 60 15.7 95 95 ENE 8 13 29.94 1014 3 4 N/A
11:35 pm 23:35 Cloudy with Mist and Fog 62 16.5 60 15.7 95 95 ENE 7 11 29.94 1014 4 6 N/A
11:55 pm 23:55 Cloudy with Mist and Fog 62 16.5 60 15.7 95 95 ENE 10 17 29.94 1014 2 3 N/A

Powered by AerisWeather